CAPE
331 0 0 0 0 0 30 81 96 143 21 33 100 88 226 233 260 324 0 0 9 487 1196 1590 1049 1540 1036 1199 1214 1416 1449 1421 1382 1261 1166 1217 1348 999 940 1100 1061 644 479 282 177 467 536 635 875
22 0 0 0 0 0 0 13 62 85 165 308 267 251 297 322 194 16 0 4 47 762 1239 1218 1112 1684 1182 1142 1210 1467 1385 1351 1335 1158 888 709 945 1043 882 1207 1212 827 667 457 223 423 527 595 754
0 0 0 0 0 0 0 58 26 60 396 321 499 379 80 163 146 6 5 56 445 953 1204 943 1185 1711 1392 1065 1146 1431 1370 1386 1151 887 833 682 877 1369 1544 1571 1414 815 621 526 392 310 609 790 876
0 0 0 0 0 0 1 0 27 71 26 252 517 511 194 266 52 70 93 481 729 1056 1078 905 1128 1765 1476 946 984 1367 1329 1310 1154 901 939 992 957 1436 1649 1706 1529 1344 705 601 697 656 1018 999 884
0 0 0 0 0 0 0 0 30 99 47 192 556 576 160 184 274 117 411 512 510 817 1152 1173 1662 1777 1391 944 907 1249 1540 1560 1469 1261 1187 1335 1542 1690 1859 1805 1741 1721 1264 790 767 853 1281 1120 1138
0 0 0 0 0 0 0 0 2 37 29 228 208 615 206 199 281 167 288 355 591 788 1351 998 1809 1754 1498 1188 1359 1529 1680 1727 1711 1616 1656 1653 1773 1909 1919 1930 1821 1951 1907 1457 1183 1490 1176 958 965
0 0 0 0 0 0 0 0 0 3 116 121 397 495 424 285 276 140 245 709 674 954 1343 1327 1333 1269 1540 1423 1568 1616 1714 1771 1795 1750 1783 1810 1753 1815 1719 1561 1794 1845 1851 1852 1440 1194 761 610 608
0 0 0 0 0 0 0 0 0 0 0 444 521 564 535 458 395 175 497 710 677 1618 1329 1270 1230 1047 1113 1106 1321 1562 1800 1807 1880 1808 1782 1849 1741 1644 1561 1266 1350 1404 1396 1420 1238 1019 790 676 806
0 0 0 0 0 0 0 0 0 0 74 650 672 810 426 457 305 161 254 300 564 1382 1358 1228 1075 1037 989 849 778 1606 1374 1428 1718 1581 1619 1548 902 943 904 726 1161 1258 1225 1094 1269 1197 1026 919 961
0 0 0 0 0 0 0 0 36 378 756 841 819 846 576 469 325 205 88 82 377 966 1438 1131 987 948 883 818 614 1120 1058 1131 1319 1268 1284 756 453 410 466 531 916 1326 1403 1344 1225 1445 1350 1348 718
0 0 0 0 0 0 0 0 93 890 1009 932 868 929 708 533 325 246 121 83 150 353 1385 1278 1190 949 715 649 779 968 1055 1158 1217 1006 906 509 276 322 303 171 380 513 975 735 1290 1323 1193 858 359
0 0 0 0 0 0 0 0 0 935 771 1027 938 897 660 523 406 311 255 84 142 433 629 1082 1043 971 758 693 788 774 913 959 1047 881 667 372 225 87 65 21 0 72 238 504 386 529 687 587 375
0 0 0 0 0 0 0 0 0 310 1022 1129 1074 737 559 539 496 417 308 204 234 311 486 1088 1033 985 879 681 681 638 846 880 848 813 586 331 148 48 0 0 0 0 108 268 213 164 289 496 374
0 0 0 0 0 0 0 0 0 162 935 1145 953 658 573 642 605 521 448 401 318 331 359 660 889 954 974 839 640 503 627 650 800 766 589 398 133 35 0 3 18 37 70 234 195 6 18 322 377
0 0 0 0 0 0 0 0 0 622 1153 1019 808 711 686 661 679 613 581 564 520 496 431 489 739 827 884 893 752 620 559 615 638 698 632 467 296 85 10 0 102 169 223 232 238 263 175 95 291
0 0 0 0 0 0 0 0 0 1059 1306 920 684 628 730 770 819 734 673 716 717 628 540 492 492 664 751 825 803 731 589 535 511 433 495 481 378 244 108 18 132 238 302 293 301 354 351 87 117
0 0 0 0 0 0 0 0 0 1258 1268 881 782 704 656 641 640 688 791 816 814 694 640 654 551 529 518 611 672 630 582 426 327 236 214 234 317 318 249 212 202 335 280 269 353 399 461 294 219
0 0 0 0 0 0 0 0 487 1352 1327 1013 918 792 820 904 784 741 765 836 785 755 751 830 673 610 581 448 384 239 172 88 128 227 244 133 112 217 311 342 365 380 394 394 403 226 308 293 240
0 0 0 0 0 0 0 169 582 1266 1328 1153 1050 970 1047 1036 1011 967 888 806 849 790 730 785 750 696 638 554 419 479 377 188 155 265 316 185 258 323 398 446 500 539 516 537 356 339 296 284 294
0 0 0 0 0 0 205 393 572 962 1318 1220 1161 1122 1183 1178 1130 1150 1163 1077 941 908 913 898 835 769 699 594 421 343 317 238 524 534 401 413 364 430 538 509 478 538 409 376 358 229 150 147 252
0 0 0 0 0 2 229 430 597 664 914 854 888 1160 1208 1118 1030 1054 1049 1086 1079 1021 1016 994 964 849 736 665 522 604 646 653 709 545 536 561 417 373 475 451 421 351 294 233 192 220 94 69 60
0 0 0 0 0 0 0 38 592 718 971 960 1094 1274 1102 1016 907 918 841 832 958 1165 1084 977 909 810 746 681 873 897 921 879 776 665 486 397 393 432 328 317 330 309 379 376 322 220 129 107 45
0 0 0 0 0 0 0 3 275 629 780 978 1248 1272 1132 969 913 686 544 203 512 770 993 1192 1170 1056 1001 961 761 840 858 864 957 848 679 473 472 542 519 425 422 379 274 255 211 200 184 247 153
1 1 4 1 0 0 0 0 0 378 800 898 928 957 935 902 792 570 273 100 261 423 629 821 941 988 1008 1104 1168 1065 1043 955 889 766 660 527 500 400 282 243 168 104 96 93 44 67 105 228 199
0 1 0 0 0 0 0 0 0 0 342 548 725 944 1016 848 722 486 254 2 13 45 101 166 198 278 380 510 668 738 812 705 689 517 462 473 306 73 45 13 17 5 0 0 0 8 68 52 77
0 0 0 0 0 0 0 0 0 0 1 10 239 641 867 812 664 487 267 31 0 0 0 0 0 0 0 0 0 0 0 0 0 0 0 0 0 0 0 0 0 0 0 0 0 1 9 59 109
0 0 0 0 0 0 0 0 0 31 1 26 67 143 548 729 653 482 201 38 0 0 0 0 0 0 0 0 0 0 0 0 0 0 0 0 0 0 0 0 0 0 0 0 0 0 0 0 1
2 0 0 0 0 0 0 0 0 0 0 0 11 42 273 536 580 509 150 17 0 0 0 0 0 0 0 0 0 0 0 0 0 0 0 0 0 0 0 0 0 0 0 0 0 0 0 0 0
0 0 0 0 0 0 0 0 0 0 0 6 58 84 232 433 450 243 50 17 0 0 0 0 0 0 0 0 0 0 0 0 0 0 0 0 0 0 0 0 0 0 0 0 0 0 0 0 0
0 0 0 0 0 0 0 0 0 0 0 23 63 129 200 380 416 263 82 5 0 0 0 0 0 0 0 0 0 0 0 0 0 0 0 0 0 0 0 0 0 0 0 0 0 0 0 0 0
CIN
-528 0 0 0 0 0 -58 -66 -121 -201 -87 -244 -185 -128 -85 -127 -63 -23 -135 0 -183 -270 -61 -13 -22 -6 -37 -41 -36 -20 -15 -8 -5 -12 -14 -7 -2 -11 -4 -1 0 -15 -29 -43 -52 -25 -21 -11 -1
-778 0 0 0 0 0 0 -35 -190 -260 -78 -120 -111 -84 -54 -36 -405 -46 0 -661 -505 -205 -56 -25 -12 -2 -29 -41 -37 -15 -10 -4 0 -1 -13 -22 -11 -4 -5 0 0 -4 -12 -25 -40 -23 -15 -7 0
0 0 0 0 0 0 0 -53 -67 -254 -63 -64 -82 -93 -175 -257 -436 -325 -196 -546 -317 -145 -54 -43 -6 0 -14 -39 -37 -18 -7 -1 -2 -9 -10 -15 -8 0 0 0 0 -4 -9 -11 -17 -28 -9 -2 0
0 0 0 0 0 0 -31 0 -146 -260 -278 -41 -66 -62 -192 -351 -636 -506 -603 -369 -238 -117 -73 -43 -9 0 -8 -39 -40 -17 -7 0 -2 -9 -6 -3 -3 0 0 0 0 0 0 -4 -3 -4 0 0 0
0 0 0 0 0 0 0 0 -97 -208 -207 -47 -35 -113 -209 -397 -334 -412 -442 -366 -322 -172 -53 -10 0 0 -9 -35 -37 -13 0 0 0 0 0 0 0 0 0 0 0 0 0 -1 -8 -2 0 -2 -2
0 0 0 0 0 0 0 0 -37 -53 -130 -127 -103 -61 -131 -343 -339 -333 -413 -422 -308 -196 -38 -25 0 0 -3 -20 -14 -3 0 0 0 0 0 0 0 0 0 0 0 0 0 0 0 -1 -7 -9 -9
0 0 0 0 0 0 0 0 0 -41 -61 -50 -124 -35 -86 -142 -339 -240 -411 -259 -246 -150 -50 -10 0 0 0 -8 -5 -2 0 0 0 0 0 0 0 0 -1 -4 -2 0 0 0 -3 -6 -18 -25 -26
0 0 0 0 0 0 0 0 0 0 0 -236 -137 -66 -54 -136 -273 -211 -316 -238 -225 -55 -59 -34 -3 -6 -9 -9 -5 -1 0 0 0 0 0 0 0 0 -3 -20 -17 -10 -7 -8 -7 -13 -28 -38 -35
0 0 0 0 0 0 0 0 0 0 -232 -200 -155 -92 -125 -189 -228 -182 -384 -332 -242 -79 -53 -44 -42 -20 -24 -30 -35 0 0 0 0 0 0 -1 -23 -29 -32 -57 -31 -23 -23 -24 -21 -15 -34 -48 -44
0 0 0 0 0 0 0 0 -46 -221 -203 -209 -168 -87 -320 -201 -205 -175 -479 -509 -303 -146 -56 -66 -56 -28 -25 -35 -61 -16 -17 -9 -1 -1 -1 -36 -65 -74 -72 -75 -49 -26 -21 -20 -30 -16 -26 -31 -83
0 0 0 0 0 0 0 0 -39 -146 -132 -160 -111 -65 -222 -203 -206 -182 -174 -573 -520 -356 -73 -71 -55 -45 -64 -64 -49 -33 -28 -20 -8 -24 -32 -71 -102 -93 -97 -126 -104 -110 -52 -70 -29 -31 -50 -81 -138
0 0 0 0 0 0 0 0 0 -93 -92 -119 -67 -52 -236 -241 -208 -184 -175 -120 -430 -365 -258 -140 -114 -86 -78 -76 -63 -65 -46 -47 -43 -56 -70 -112 -143 -172 -169 -131 0 -174 -168 -100 -102 -105 -100 -117 -126
0 0 0 0 0 0 0 0 0 -42 -38 -62 -33 -66 -257 -229 -196 -188 -168 -82 -78 -316 -316 -167 -134 -106 -94 -105 -85 -91 -59 -66 -88 -92 -113 -150 -190 -211 0 0 0 0 -225 -126 -137 -138 -150 -146 -124
0 0 0 0 0 0 0 0 0 -179 -92 -22 -24 -105 -303 -275 -223 -176 -148 -118 -83 -51 -305 -264 -179 -141 -101 -100 -115 -132 -106 -110 -93 -106 -133 -160 -199 -221 0 -56 -127 -183 -146 -131 -107 -50 -72 -175 -117
0 0 0 0 0 0 0 0 0 -152 -70 -37 -50 -161 -335 -365 -251 -171 -132 -80 -58 -30 -19 -281 -193 -152 -132 -91 -101 -118 -125 -123 -123 -127 -139 -165 -180 -196 -235 -5 -122 -109 -91 -26 -37 -45 -67 -246 -167
0 0 0 0 0 0 0 0 0 -98 -42 -32 -35 -112 -175 -185 -157 -153 -126 -65 -46 -27 -13 -17 -58 -192 -162 -136 -105 -95 -106 -127 -134 -153 -153 -159 -172 -188 -178 -171 -56 -43 -33 -33 -16 -30 -54 -236 -249
0 0 0 0 0 0 0 0 0 -77 -32 -27 -39 -93 -138 -129 -209 -109 -105 -66 -39 -40 -36 -42 -22 -13 -122 -172 -121 -118 -95 -110 -127 -147 -165 -161 -165 -161 -164 -160 -145 -21 -23 -21 -36 -46 -42 -56 -38
0 0 0 0 0 0 0 0 -265 -70 -38 -28 -46 -83 -233 -266 -279 -235 -48 -37 -18 -19 -121 -69 -36 -23 -20 -25 -194 -160 -63 -43 -41 -14 -13 -79 -158 -200 -138 -125 -122 -116 -94 -76 -49 -60 -44 -26 -147
0 0 0 0 0 0 0 -327 -230 -75 -47 -29 -44 -129 -175 -194 -183 -164 -160 -36 -32 -33 -32 -101 -54 -31 -31 -26 -72 -109 -107 -31 -58 -20 -5 -8 -156 -120 -102 -116 -111 -86 -75 -61 -35 -40 -49 -58 -29
0 0 0 0 0 0 -261 -205 -181 -89 -54 -43 -40 -60 -129 -129 -116 -98 -119 -105 -47 -39 -38 -34 -34 -30 -40 -40 -45 -38 -71 -42 -10 -4 -7 -20 -89 -117 -90 -61 -67 -55 -44 -58 -25 -39 -41 -60 -89
0 0 0 0 0 -38 -221 -128 -107 -129 -53 -88 -143 -126 -103 -80 -82 -97 -105 -137 -92 -57 -43 -33 -30 -30 -39 -40 -57 -91 -71 -11 -9 -14 -9 -1 0 -76 -68 -61 -31 -54 -87 -79 -37 -32 -47 -13 -21
0 0 0 0 0 0 0 -147 -72 -86 -85 -93 -116 -99 -96 -89 -92 -89 -66 -109 -124 -79 -36 -85 -42 -39 -35 -36 -56 -39 -23 -16 -28 -35 -51 -53 -59 -74 -51 -65 -34 -46 -11 -3 -2 -14 -15 -26 -14
0 0 0 0 0 0 0 -88 -78 -75 -74 -74 -88 -115 -98 -105 -66 -58 -48 -344 -217 -126 -67 -30 -30 -39 -28 -13 -18 -32 -28 -25 -22 -7 -10 -7 -42 -25 -6 -10 -18 -20 -48 -38 -30 -26 -15 -2 0
-5 -10 -11 -3 0 0 0 0 0 -60 -88 -88 -107 -97 -85 -83 -65 -43 -22 -411 -327 -246 -159 -88 -50 -31 -20 -6 0 -7 -9 -12 -24 -24 -18 -20 -26 -30 -44 -44 -50 -71 -74 -69 -116 -89 -66 -16 -7
0 -3 -1 -4 0 0 0 0 0 0 -70 -74 -85 -93 -62 -55 -50 -38 -20 -1 -178 -467 -404 -339 -297 -231 -164 -106 -52 -22 -9 -2 0 -5 -9 -4 -14 -62 -77 -35 -38 -54 0 0 0 -116 -112 -107 -80
0 0 0 0 0 0 0 0 0 0 -148 -274 -151 -124 -48 -45 -31 -36 -23 -24 0 0 0 0 0 0 0 -51 -43 0 0 0 0 0 0 0 0 0 0 0 0 0 0 0 0 -2 -42 -125 -74
0 0 0 0 0 0 0 0 0 -258 -195 -118 -87 -255 -151 -89 -69 -48 -56 -34 0 0 0 0 0 0 0 0 0 0 0 0 0 0 0 0 0 0 0 0 0 0 0 0 0 0 0 0 0
-9 0 0 0 0 0 0 0 0 0 0 0 -162 -249 -223 -120 -69 -47 -58 -36 0 0 0 0 0 0 0 0 0 0 0 0 0 0 0 0 0 0 0 0 0 0 0 0 0 0 0 0 0
0 0 0 0 0 0 0 0 0 0 0 -239 -122 -142 -181 -102 -57 -56 -53 -34 0 0 0 0 0 0 0 0 0 0 0 0 0 0 0 0 0 0 0 0 0 0 0 0 0 0 0 0 0
-1 0 0 0 0 0 0 0 0 0 0 -124 -86 -63 -113 -107 -51 -38 -67 -36 0 0 0 0 0 0 0 0 0 0 0 0 0 0 0 0 0 0 0 0 0 0 0 0 0 0 0 0 0
Wind_Speed
12 nan nan nan nan nan nan nan nan 13 nan nan 5 nan 10 12 12 6 nan nan nan 26 23 25 29 24 23 23 21 20 19 18 16 16 17 18 18 19 18 18 18 15 14 12 10 8 7 7 7
nan nan nan nan nan nan nan nan nan nan 17 19 9 11 12 13 15 nan nan nan nan 26 27 26 31 27 25 25 23 21 20 19 18 17 17 18 19 21 20 18 18 18 16 14 13 11 9 8 7
nan nan nan nan nan nan nan nan nan nan 13 17 12 12 nan 12 19 nan nan nan 28 26 25 27 32 27 25 26 25 24 21 20 19 19 19 20 20 20 20 18 17 18 17 15 15 13 11 10 10
nan nan nan nan nan nan nan nan nan nan nan 11 11 14 13 14 nan nan nan 27 26 27 25 30 31 26 25 25 24 24 24 21 20 19 20 19 20 19 18 18 18 18 18 17 16 14 11 9 8
nan nan nan nan nan nan nan nan nan nan nan 11 17 16 13 7 13 23 23 23 29 29 22 24 26 26 27 25 23 22 21 21 20 20 19 18 15 17 16 17 18 18 19 18 17 15 10 11 7
nan nan nan nan nan nan nan nan nan nan nan 11 17 18 11 7 7 16 19 28 25 27 21 22 26 26 28 26 22 19 19 19 18 18 19 17 16 14 14 13 15 16 18 17 16 15 9 7 5
nan nan nan nan nan nan nan nan nan nan 11 8 11 15 9 3 10 16 19 19 23 26 22 23 22 23 27 24 21 20 18 18 16 16 17 16 15 15 14 13 13 15 16 15 13 13 11 10 8
nan nan nan nan nan nan nan nan nan nan nan 21 21 14 6 6 15 20 19 17 23 21 19 18 18 17 15 16 22 18 17 17 15 15 15 16 15 13 14 14 12 14 12 14 13 12 11 9 9
nan nan nan nan nan nan nan nan nan nan nan 19 18 19 19 21 23 25 21 19 19 18 19 18 16 15 14 14 16 17 18 17 15 14 14 13 11 11 12 13 11 11 11 9 11 14 9 10 9
nan nan nan nan nan nan nan nan nan 26 23 23 24 22 26 15 19 24 nan nan 20 20 16 17 19 16 13 12 12 9 11 9 9 9 10 11 12 12 13 11 11 11 9 8 7 12 9 9 10
nan nan nan nan nan nan nan nan nan 33 27 20 28 20 17 11 15 19 21 nan 23 24 17 21 23 20 15 13 11 8 9 9 8 8 8 10 12 12 15 14 12 12 10 9 7 8 9 8 10
nan nan nan nan nan nan nan nan nan 31 33 32 36 36 24 15 14 14 19 nan 19 21 23 21 21 20 16 15 13 13 12 11 9 7 9 10 10 nan nan nan nan nan 13 12 11 11 10 8 8
nan nan nan nan nan nan nan nan nan 37 36 43 45 37 28 19 12 8 12 19 23 24 20 21 17 19 17 18 16 15 13 11 9 10 9 11 10 nan nan nan nan nan 13 15 12 11 12 12 11
nan nan nan nan nan nan nan nan nan 45 43 47 45 35 26 19 15 14 15 20 22 21 22 21 18 19 18 15 15 13 13 11 12 13 11 12 12 nan nan nan nan nan nan 12 13 nan nan 13 15
nan nan nan nan nan nan nan nan nan 46 45 48 41 34 30 23 18 15 18 20 22 17 23 21 20 19 21 16 15 13 10 10 11 11 13 13 14 nan nan nan 14 15 17 15 13 11 15 nan 17
nan nan nan nan nan nan nan nan nan 47 48 47 43 37 35 28 28 26 23 23 24 23 19 23 19 20 22 19 17 16 15 15 14 11 13 14 15 16 17 nan 17 20 21 21 19 16 13 nan 18
nan nan nan nan nan nan nan nan nan 45 47 50 46 41 38 39 40 36 33 28 25 26 26 23 20 20 20 22 20 22 21 23 21 19 16 17 18 19 20 21 23 25 24 26 24 22 21 19 19
nan nan nan nan nan nan nan nan 51 50 46 45 42 41 42 43 39 37 34 29 27 25 27 29 26 25 24 26 25 24 27 nan 26 26 19 22 23 23 25 25 26 30 31 32 32 29 27 26 23
nan nan nan nan nan nan nan 39 50 47 49 38 35 36 39 38 34 33 34 33 32 28 28 25 26 25 28 27 28 28 28 26 25 30 32 29 28 26 27 28 29 33 36 37 36 37 35 34 36
nan nan nan nan nan nan 36 42 44 47 43 38 38 34 29 23 25 24 22 26 29 27 28 28 29 30 26 26 26 27 29 29 34 36 37 38 41 40 39 34 33 34 36 38 41 39 39 40 44
nan nan nan nan nan nan 41 39 38 38 40 39 38 27 21 23 23 22 23 24 24 26 23 26 27 30 28 26 27 30 34 36 36 36 37 40 39 43 42 36 33 39 33 40 36 40 nan nan nan
nan nan nan nan nan nan nan nan 30 32 31 30 28 20 14 21 23 22 28 26 29 28 28 26 26 27 27 29 30 30 31 33 35 36 37 34 34 39 37 37 35 37 40 42 41 45 49 51 nan
nan nan nan nan nan nan nan nan 30 32 27 18 17 20 13 20 20 26 27 28 26 28 25 26 29 26 23 24 25 26 31 32 33 36 39 40 40 42 42 42 41 40 40 43 44 47 49 54 57
nan nan nan nan nan nan nan nan nan 30 21 19 23 19 23 21 26 29 32 33 28 27 30 31 35 32 30 30 30 32 33 33 34 36 36 36 36 37 39 41 41 42 nan nan nan nan 46 48 49
nan nan nan nan nan nan nan nan nan nan 29 28 27 28 30 33 35 36 36 nan nan nan 36 35 38 38 37 35 36 36 37 37 39 38 39 41 41 nan nan nan nan nan nan nan nan nan nan nan nan
nan nan nan nan nan nan nan nan nan nan nan nan 34 41 43 39 31 34 34 nan nan nan nan nan nan nan nan nan nan nan nan nan nan nan nan nan nan nan nan nan nan nan nan nan nan nan nan nan 46
nan nan nan nan nan nan nan nan nan nan nan nan nan 37 36 33 31 31 34 nan nan nan nan nan nan nan nan nan nan nan nan nan nan nan nan nan nan nan nan nan nan nan nan nan nan nan nan nan nan
nan nan nan nan nan nan nan nan nan nan nan nan nan nan 36 39 41 36 35 nan nan nan nan nan nan nan nan nan nan nan nan nan nan nan nan nan nan nan nan nan nan nan nan nan nan nan nan nan nan
nan nan nan nan nan nan nan nan nan nan nan nan nan nan 28 31 32 29 nan nan nan nan nan nan nan nan nan nan nan nan nan nan nan nan nan nan nan nan nan nan nan nan nan nan nan nan nan nan nan
nan nan nan nan nan nan nan nan nan nan nan nan nan 27 27 28 27 27 nan nan nan nan nan nan nan nan nan nan nan nan nan nan nan nan nan nan nan nan nan nan nan nan nan nan nan nan nan nan nan
Wind_Direction
290 nan nan nan nan nan nan nan nan 136 nan nan 246 nan 272 261 287 333 nan nan nan 325 334 331 328 321 315 310 308 306 304 305 305 310 316 318 320 320 326 333 335 338 332 320 304 293 285 291 294
nan nan nan nan nan nan nan nan nan nan 149 168 178 239 233 250 260 nan nan nan nan 324 328 329 326 317 318 312 309 305 308 311 313 315 319 323 324 325 328 332 334 335 329 319 307 301 297 294 288
nan nan nan nan nan nan nan nan nan nan 194 196 209 233 nan 232 260 nan nan nan 318 316 317 322 325 322 321 317 311 308 309 310 315 318 323 325 328 329 329 327 328 330 324 318 312 310 313 313 306
nan nan nan nan nan nan nan nan nan nan nan 213 206 240 250 219 nan nan nan 317 322 318 321 327 325 323 321 316 314 310 310 311 316 320 320 324 328 328 327 327 328 327 327 323 319 314 317 307 304
nan nan nan nan nan nan nan nan nan nan nan 250 251 235 239 233 303 314 322 320 322 321 321 324 324 323 325 322 314 311 308 310 314 319 319 320 323 323 327 332 330 324 325 330 328 318 317 312 318
nan nan nan nan nan nan nan nan nan nan nan 213 238 240 229 240 310 321 313 312 310 315 310 319 320 323 330 326 318 312 309 307 313 319 318 316 317 320 323 333 330 324 324 328 331 323 322 310 282
nan nan nan nan nan nan nan nan nan nan 256 256 237 256 228 9 321 310 299 301 311 316 309 313 315 324 330 329 323 317 314 312 312 316 317 319 320 317 318 317 318 314 316 317 323 305 298 284 263
nan nan nan nan nan nan nan nan nan nan nan 251 274 282 289 333 315 293 291 302 319 327 324 320 324 330 336 341 330 322 322 316 315 314 315 318 319 315 313 318 318 312 312 311 310 305 305 287 265
nan nan nan nan nan nan nan nan nan nan nan 258 266 271 275 304 307 292 298 308 323 336 337 331 328 336 339 343 343 329 325 320 319 320 316 300 287 295 301 306 308 303 305 311 314 307 314 299 283
nan nan nan nan nan nan nan nan nan 258 267 258 258 262 275 307 334 319 nan nan 328 330 329 326 330 335 329 330 336 323 310 290 287 294 301 290 289 286 289 292 301 299 296 299 300 305 316 304 275
nan nan nan nan nan nan nan nan nan 260 260 262 281 271 308 314 338 335 341 nan 331 328 321 329 329 330 323 312 300 295 293 276 265 283 282 279 281 281 279 274 267 266 269 255 256 270 286 291 280
nan nan nan nan nan nan nan nan nan 247 237 262 287 298 304 318 326 343 340 nan 314 322 328 325 323 325 305 292 292 293 294 299 277 267 274 270 272 nan nan nan nan nan 263 261 251 245 254 268 270
nan nan nan nan nan nan nan nan nan 241 245 266 276 289 307 319 316 297 307 307 307 315 312 324 321 318 288 292 294 291 292 304 280 269 266 261 273 nan nan nan nan nan 276 270 262 256 250 253 262
nan nan nan nan nan nan nan nan nan 239 255 260 272 286 301 306 320 285 288 296 309 300 302 302 314 306 294 296 309 298 286 296 268 266 266 269 264 nan nan nan nan nan nan 290 279 nan nan 254 256
nan nan nan nan nan nan nan nan nan 242 256 266 270 282 283 297 300 295 278 287 300 287 280 286 291 284 289 282 302 278 281 276 271 269 274 277 274 nan nan nan 276 281 286 289 284 279 264 nan 256
nan nan nan nan nan nan nan nan nan 242 263 265 267 270 271 268 272 266 261 271 282 271 274 276 281 284 286 284 284 269 265 266 263 261 283 292 285 279 273 nan 271 274 278 282 283 278 272 nan 271
nan nan nan nan nan nan nan nan nan 236 256 261 263 264 268 266 262 257 252 250 264 269 270 275 274 282 276 270 271 269 271 270 268 260 276 281 284 283 277 270 263 268 273 275 276 274 274 270 269
nan nan nan nan nan nan nan nan 232 234 249 257 261 263 265 264 255 251 255 254 248 256 265 269 265 270 267 258 258 256 265 nan 273 273 294 286 279 279 278 274 275 275 271 270 274 276 274 266 271
nan nan nan nan nan nan nan 247 236 235 240 250 264 263 265 261 259 254 254 252 258 257 258 261 266 264 264 255 258 260 261 260 262 271 276 277 275 275 276 274 276 277 278 276 274 272 274 267 262
nan nan nan nan nan nan 250 242 243 241 245 246 255 247 264 267 261 258 248 252 253 255 256 254 258 262 265 266 263 266 269 269 265 268 268 268 268 268 261 259 254 261 268 274 276 279 278 273 265
nan nan nan nan nan nan 244 234 234 238 244 237 233 240 264 286 280 274 267 267 261 260 253 253 251 252 252 253 263 258 258 261 264 266 266 264 263 268 268 259 276 270 267 271 272 279 nan nan nan
nan nan nan nan nan nan nan nan 219 219 226 234 245 253 262 272 276 280 282 280 276 272 266 263 261 257 253 250 255 256 260 262 259 260 258 261 265 266 273 281 283 284 283 278 280 282 287 288 nan
nan nan nan nan nan nan nan nan 230 237 237 254 279 283 277 285 288 288 285 283 281 273 270 264 262 249 247 257 266 267 266 265 268 266 265 262 264 265 264 266 267 272 274 277 282 283 285 283 285
nan nan nan nan nan nan nan nan nan 253 270 259 271 279 264 283 280 277 269 272 271 266 265 269 270 265 265 267 272 277 278 276 278 277 278 279 277 274 270 272 273 273 nan nan nan nan 279 280 283
nan nan nan nan nan nan nan nan nan nan 252 262 285 265 270 277 284 284 282 nan nan nan 263 265 267 268 270 279 279 279 276 277 276 278 281 285 284 nan nan nan nan nan nan nan nan nan nan nan nan
nan nan nan nan nan nan nan nan nan nan nan nan 276 279 276 279 280 272 274 nan nan nan nan nan nan nan nan nan nan nan nan nan nan nan nan nan nan nan nan nan nan nan nan nan nan nan nan nan 277
nan nan nan nan nan nan nan nan nan nan nan nan nan 287 293 294 291 276 272 nan nan nan nan nan nan nan nan nan nan nan nan nan nan nan nan nan nan nan nan nan nan nan nan nan nan nan nan nan nan
nan nan nan nan nan nan nan nan nan nan nan nan nan nan 283 278 278 276 275 nan nan nan nan nan nan nan nan nan nan nan nan nan nan nan nan nan nan nan nan nan nan nan nan nan nan nan nan nan nan
nan nan nan nan nan nan nan nan nan nan nan nan nan nan 286 281 284 281 nan nan nan nan nan nan nan nan nan nan nan nan nan nan nan nan nan nan nan nan nan nan nan nan nan nan nan nan nan nan nan
nan nan nan nan nan nan nan nan nan nan nan nan nan 289 287 287 289 277 nan nan nan nan nan nan nan nan nan nan nan nan nan nan nan nan nan nan nan nan nan nan nan nan nan nan nan nan nan nan nan